Tracking 17842 objects as of 29-August-2016
HD Live streaming from Space Station
objects crossing your sky now

SL-16 DEB

Track SL-16 DEB now!
10-day predictions


NORAD ID: 36031
Int'l Code: 1996-051N
Perigee: 756.6 km
Apogee: 778.0 km
Inclination: 70.9 °
Period: 100.0 minutes
Semi major axis: 7138 km
RCS: 0.0057 m2 (small)
Launch date: September 4, 1996
Source: Commonwealth of Independent States (former USSR) (CIS)
Launch site: TYURATAM MISSILE AND SPACE COMPLEX (TTMTR)

Note: This is SATELLITE DEBRIS
Your satellite tracking list
Your tracking list is empty





NASA's NSSDC Master Catalog

Two Line Element Set (TLE):
1 36031U 96051N   16241.40134112  .00002810  00000-0  91572-3 0  9992
2 36031  70.8543 223.5692 0014998 219.4367 297.0711 14.39501777357101
Source of the keplerian elements: AFSPC

N2YO: 588